Location: Kershaw
(34.5481°N, 80.5823°W)
Time: 08:50:54
(UTC+00:00)

Explorer 7 - Pass Details

Date: 06 October 2022
Orbit: 481 x 665 km, 50.3° (Epoch: 28 November)

Event Time Altitude Azimuth Distance (km) Brightness Sun altitude
Rises 19:47:04 0° 317° (NW) 2,962 10.6 35.7°
Reaches altitude 10° 19:49:50 10° 331° (NNW) 2,025 9.7 35.2°
Maximum altitude 19:53:37 24° 26° (NNE) 1,287 8.5 34.6°
Drops below altitude 10° 19:57:15 10° 81° (E) 1,933 9.2 34.0°
Sets 19:59:50 0° 95° (E) 2,796 10.0 33.6°
